Theta_e
336 335 338 346 348 351 355 356 363 367 369 358 356 363 356 357 357 355 360 358 357 353 350 350 348 349 355 356 352 353 353 351 353 352 349 350 346 344 349 348 348 344 343 345 349 350 349 349 348 349 348 348 350 350 351 351 351 351 352 352 352 352 352 352 352 352 349 350 352 352 350 350 352 351 350 349 348 347 348 350 351 351 353 353 353 354 354 352 352 352 352 352 350 350 350 351 350
339 342 343 348 347 354 362 361 366 366 363 353 353 362 354 356 359 355 360 358 355 349 348 348 348 352 354 354 349 354 355 349 350 351 350 348 346 348 350 350 348 343 343 346 349 350 349 348 347 349 350 351 351 351 351 350 350 351 351 352 352 352 351 351 352 352 350 352 352 352 351 351 351 351 351 350 349 348 348 349 350 351 353 353 352 354 354 352 351 352 350 350 350 351 351 351 350
344 348 349 350 352 357 364 363 366 360 355 350 350 360 359 361 360 357 358 354 351 346 348 348 351 353 353 358 354 357 356 348 348 349 349 348 349 350 351 351 345 341 344 347 349 349 348 348 349 349 350 351 351 350 350 350 351 351 350 351 352 351 351 351 352 351 351 351 351 351 352 352 351 350 351 351 349 349 349 350 351 353 353 353 352 353 354 351 352 352 351 350 350 350 350 350 349
348 352 352 354 360 362 367 369 369 361 353 350 347 356 362 361 362 360 358 355 351 346 349 350 352 352 353 359 351 353 353 348 349 349 350 349 350 351 351 347 340 344 348 349 349 349 349 349 349 350 349 350 350 349 347 349 350 350 350 351 352 352 350 351 352 351 350 350 350 351 352 352 352 350 351 351 350 350 350 350 352 353 353 353 352 352 352 350 352 353 351 351 351 350 350 350 349
351 354 353 355 365 365 369 371 370 363 355 357 351 355 361 358 362 360 357 355 351 350 350 349 351 349 350 351 348 353 352 350 349 349 350 350 350 350 348 342 341 349 350 348 348 349 350 350 350 350 350 349 349 348 346 348 349 349 350 352 352 352 351 350 352 352 350 350 350 351 351 351 351 350 351 352 350 351 351 351 353 352 351 351 352 352 352 350 352 353 352 351 351 350 350 349 349
351 354 354 357 363 362 368 365 364 364 363 372 360 354 359 357 363 361 356 353 350 351 351 349 349 349 350 348 346 350 350 349 350 349 350 350 351 349 343 340 348 352 348 347 348 349 350 351 351 350 350 349 349 348 347 348 349 350 350 351 352 351 351 351 351 352 351 351 351 351 350 350 350 350 351 351 351 351 351 351 353 351 348 349 352 352 352 351 352 353 352 352 351 351 350 349 349
351 357 361 362 363 364 370 364 362 370 366 374 368 355 360 361 364 362 355 351 349 348 349 349 347 351 352 348 347 348 347 349 350 349 350 351 349 346 344 347 352 351 347 347 348 348 350 351 351 350 349 349 349 349 349 349 350 350 351 351 351 350 351 351 352 351 351 351 351 350 349 350 350 350 351 351 351 351 350 351 352 350 348 348 351 352 352 352 352 353 352 351 351 350 350 349 350
353 362 365 365 370 369 370 366 365 373 367 366 369 361 361 365 363 360 354 349 349 349 348 348 346 352 352 348 350 349 347 349 349 349 350 351 350 349 350 351 352 350 349 347 348 348 350 351 351 350 349 349 349 349 349 350 351 351 351 352 351 349 350 350 351 351 351 351 350 349 350 350 350 350 350 351 351 350 349 350 351 350 350 350 351 353 352 352 352 352 351 351 351 349 349 349 349
353 361 365 365 372 370 365 367 366 372 376 372 371 364 362 365 365 360 356 351 350 350 350 348 347 352 351 349 351 348 348 349 350 350 351 351 351 351 352 351 350 349 348 348 349 350 351 352 350 349 349 350 350 350 350 350 351 351 352 352 351 349 350 350 351 351 351 352 351 349 351 351 350 350 350 350 350 350 350 349 350 351 351 351 352 352 351 352 352 350 350 350 350 350 349 349 349
358 361 364 368 370 365 359 365 366 370 381 379 369 365 366 367 368 363 357 354 351 351 350 347 347 350 351 351 351 349 348 351 351 351 351 351 352 352 351 350 346 346 348 349 350 350 351 350 350 350 350 350 349 349 350 350 351 351 351 352 350 349 351 351 351 350 350 352 352 350 350 350 350 350 350 350 349 350 351 351 351 351 352 353 352 352 351 352 352 349 349 348 349 350 350 350 350
364 362 362 367 365 359 357 363 365 372 382 375 364 365 372 369 364 359 355 355 352 351 348 346 349 349 350 351 352 349 349 351 350 351 351 352 352 351 349 347 345 346 347 348 349 350 350 349 350 351 350 350 350 349 350 351 350 351 351 351 350 350 351 350 350 351 351 351 351 351 350 349 349 349 349 350 350 350 351 351 352 352 353 353 353 353 353 351 349 347 346 345 346 348 350 351 350
367 364 364 366 362 361 363 365 364 377 378 365 359 362 371 365 356 355 355 354 350 349 348 348 349 348 351 353 351 350 349 349 350 351 352 352 351 349 347 346 347 347 347 349 349 350 350 351 351 351 351 351 351 350 350 351 351 351 351 351 349 349 350 349 350 351 351 351 351 351 350 350 350 349 349 351 351 350 351 352 352 352 352 352 352 351 350 348 347 346 344 343 342 345 350 352 350
368 364 366 364 364 366 368 367 368 374 365 359 362 362 367 361 352 354 353 352 351 350 348 348 347 347 351 351 350 349 348 349 351 353 351 351 351 349 348 348 348 348 349 349 350 351 351 352 352 352 352 351 351 351 351 351 351 351 351 351 349 347 349 349 349 350 351 350 350 350 350 349 350 350 349 351 352 351 351 351 352 351 351 351 350 348 347 346 346 344 342 341 341 343 348 351 350
368 363 366 365 365 368 368 367 369 367 359 363 368 365 369 362 355 353 352 354 353 351 348 345 345 348 350 351 351 348 348 350 351 352 351 351 352 351 352 351 349 349 350 349 351 352 352 352 352 352 351 351 351 350 351 351 351 351 351 351 349 348 348 348 349 350 350 350 350 350 350 349 349 349 349 350 352 351 351 351 351 350 350 350 348 348 346 345 343 340 340 340 340 342 346 349 350
366 364 367 368 364 365 367 366 369 366 361 369 372 371 370 366 363 355 351 356 353 347 346 345 345 350 351 351 353 348 348 350 350 351 352 352 352 353 353 352 352 351 350 350 351 351 352 352 351 352 350 351 350 350 350 350 351 351 351 351 351 349 347 349 350 350 350 349 350 351 350 349 349 349 350 350 350 350 350 349 349 350 349 349 348 346 344 343 340 338 338 338 339 341 345 348 348
364 364 365 367 362 362 366 369 369 365 365 373 373 371 365 363 366 358 352 352 348 343 345 346 344 348 349 349 350 347 349 351 350 352 352 353 353 353 352 352 352 351 351 350 350 350 351 350 349 350 350 350 350 350 349 350 350 350 351 351 351 350 348 349 349 349 349 349 349 350 350 349 349 351 351 350 350 348 348 348 348 349 349 349 348 345 341 339 338 337 336 336 338 342 345 347 348
361 363 365 364 363 363 368 371 369 366 368 373 371 369 365 361 363 357 352 348 345 345 346 345 344 346 347 346 348 347 349 351 351 352 351 352 352 352 352 352 353 352 352 350 350 350 350 350 349 349 350 350 349 349 350 351 351 350 351 351 351 351 350 350 350 349 349 349 349 349 350 350 350 351 351 350 349 346 346 348 348 349 348 347 345 341 339 338 336 334 333 334 339 342 345 346 346
363 369 366 362 365 368 368 370 370 368 367 370 370 370 369 364 364 359 352 349 347 346 345 345 345 346 346 347 347 347 349 349 350 351 350 351 351 351 352 352 353 353 352 352 352 351 351 351 350 349 350 349 349 350 351 351 350 350 351 350 351 351 351 350 351 351 351 351 350 349 349 349 351 351 350 349 347 347 347 348 349 348 347 344 342 340 339 338 334 332 333 336 340 343 343 344 344
366 370 366 365 368 368 367 368 370 368 365 370 374 372 371 368 366 360 354 352 348 346 345 345 347 346 347 346 347 348 348 348 349 349 349 350 350 350 351 352 353 353 352 353 353 352 352 351 349 349 349 349 349 350 350 350 350 350 350 350 350 350 350 350 350 350 351 351 351 350 349 350 351 350 348 347 347 348 348 348 348 346 344 343 342 342 340 336 333 331 334 338 341 342 342 342 343
365 366 368 372 368 366 366 367 370 371 368 370 374 371 369 369 366 359 355 351 347 347 346 347 349 348 347 346 346 348 348 348 349 348 349 349 350 351 351 352 353 353 353 353 354 353 352 350 349 348 349 349 349 349 349 349 350 350 350 350 349 349 349 350 350 350 350 351 351 350 349 349 349 348 348 348 348 347 347 346 346 344 343 343 343 341 338 336 334 332 333 337 340 340 341 341 342
365 366 370 372 365 366 366 365 366 369 369 369 373 371 368 369 367 361 354 349 349 349 346 347 348 348 347 345 346 348 348 348 348 348 348 349 350 351 351 352 353 353 353 354 354 353 352 350 348 348 348 348 348 348 349 349 350 349 349 349 349 349 349 350 350 350 351 351 350 350 348 348 347 347 348 347 346 344 344 344 343 341 342 343 342 340 338 337 336 334 333 335 338 340 341 341 342
370 368 364 363 361 366 366 362 363 364 366 366 370 371 367 365 365 366 358 349 350 348 344 345 345 346 346 345 345 347 348 348 348 347 348 349 350 351 351 353 353 353 354 355 354 353 352 349 348 347 347 348 347 347 348 349 349 349 349 349 349 349 350 350 350 349 349 349 349 349 348 348 348 347 347 345 344 343 342 342 341 340 341 341 341 341 342 342 342 340 338 338 341 342 342 342 343
373 370 358 357 360 364 362 359 360 361 364 364 365 367 367 364 362 365 359 351 352 348 343 344 344 344 345 344 346 347 348 348 348 348 347 349 350 351 352 352 352 353 353 353 353 353 352 350 348 347 346 347 347 347 348 348 348 349 349 349 349 349 350 350 350 349 348 348 348 349 349 348 348 346 345 344 342 341 341 341 341 341 341 342 343 343 344 345 345 344 343 343 344 344 344 344 345
370 369 357 356 360 361 360 358 359 360 363 363 360 365 371 370 363 361 356 352 352 346 342 344 344 344 344 345 346 346 347 348 349 348 348 349 350 352 352 352 352 352 352 352 353 354 353 351 349 347 347 346 346 347 348 348 348 348 349 349 349 349 348 348 349 348 348 347 348 349 348 347 345 344 343 343 342 341 341 342 343 344 345 345 345 346 346 346 346 347 347 346 346 347 346 346 345
366 364 357 356 359 361 361 359 361 362 363 360 359 366 372 370 364 360 354 348 347 343 342 343 344 344 344 345 346 346 347 347 348 348 348 349 350 352 353 353 352 353 351 352 353 354 353 352 350 348 347 346 345 345 346 347 347 348 349 349 349 348 348 347 347 348 347 347 347 348 346 345 343 343 343 344 343 343 344 346 347 347 347 347 347 348 348 349 350 349 348 347 348 348 347 346 346
363 360 359 357 359 361 361 361 362 363 363 360 359 366 371 367 365 358 351 347 344 343 342 343 344 344 345 345 345 346 345 346 348 348 348 349 351 352 352 353 353 353 352 352 353 353 353 353 351 349 347 347 345 345 346 347 347 349 350 350 350 349 346 344 345 345 345 345 346 346 345 343 343 345 344 344 345 346 347 348 349 348 348 348 349 350 349 350 350 348 348 348 348 348 347 344 345
361 359 359 357 359 361 361 360 360 360 361 361 359 363 368 366 363 356 349 346 343 343 343 342 344 343 345 344 344 345 344 345 345 347 348 348 351 352 352 353 352 353 353 353 354 353 352 351 350 349 347 347 346 346 348 349 348 348 350 351 349 347 344 342 342 342 343 343 343 344 343 343 346 346 344 344 346 347 348 349 349 349 349 349 350 350 349 349 348 348 350 350 348 347 346 346 345
359 359 359 357 358 361 362 361 359 360 362 359 358 362 364 364 363 357 349 346 344 344 344 342 344 344 344 343 343 344 343 344 344 346 349 349 351 352 352 353 352 353 353 353 354 352 350 349 350 349 348 347 346 347 349 349 349 349 350 349 346 344 342 342 341 341 341 341 342 342 342 344 345 345 345 346 347 348 349 349 349 349 349 350 349 350 350 349 349 351 352 350 348 347 346 347 346
361 360 362 359 360 361 362 364 360 361 362 357 360 364 365 366 365 358 348 346 346 346 346 343 343 343 343 343 344 344 342 342 344 345 348 349 350 351 352 352 352 352 351 351 353 351 348 348 349 349 350 349 347 346 347 347 347 348 348 345 343 343 343 343 342 341 341 341 341 342 342 343 343 345 346 347 347 348 348 348 349 350 350 350 350 351 350 349 351 351 350 348 347 345 345 346 346
364 362 363 360 361 362 361 363 362 364 362 359 363 362 361 366 363 358 351 346 346 346 345 343 344 343 343 343 343 343 342 342 342 344 347 348 349 350 351 352 351 350 350 350 350 349 348 349 349 350 352 351 347 345 346 346 347 347 346 344 343 345 345 345 345 344 343 342 343 343 344 345 346 346 348 349 348 347 348 350 350 351 351 351 351 350 349 350 350 349 348 348 347 346 346 346 346
368 366 365 364 361 360 362 363 365 367 362 361 366 358 359 366 362 358 351 346 345 345 345 344 343 343 342 341 342 342 342 342 342 343 346 347 348 349 351 351 351 350 350 349 349 349 349 349 349 350 352 350 347 347 347 347 347 347 347 347 347 348 348 348 347 347 346 345 345 344 345 347 347 348 349 349 349 348 349 351 351 352 353 353 351 349 350 351 351 350 350 350 349 348 347 347 347
371 362 358 364 361 360 365 363 366 369 361 362 365 359 360 366 364 361 352 347 347 345 343 344 342 341 342 341 342 342 342 340 341 342 344 346 347 348 350 351 350 350 350 350 349 350 351 350 350 350 349 349 348 347 348 348 348 348 347 349 349 350 350 350 350 351 351 350 348 346 347 348 349 349 350 350 349 348 349 351 352 351 352 352 351 350 351 352 352 351 351 352 351 349 348 347 347
370 365 357 360 360 362 364 362 365 367 365 365 366 367 367 365 368 366 356 349 349 345 343 343 342 342 342 342 341 342 342 341 341 342 343 346 346 348 350 350 350 350 350 350 351 352 353 351 350 350 348 347 348 348 348 348 348 347 348 348 348 350 351 350 351 352 353 352 351 351 351 352 352 352 351 350 348 348 350 352 351 351 352 353 351 351 351 351 351 352 352 352 353 351 348 347 346
359 366 361 358 360 361 361 362 363 361 366 368 367 370 370 368 370 367 360 353 347 344 345 344 343 343 343 343 342 342 343 342 341 341 344 346 347 347 349 349 350 350 351 351 352 353 354 352 351 350 349 348 348 348 348 348 348 347 347 346 348 349 349 349 350 352 353 352 352 352 353 353 354 353 351 349 350 350 352 353 352 351 353 353 352 351 351 351 351 352 353 353 353 352 349 348 347
351 357 358 356 360 360 360 363 364 361 365 368 366 365 368 372 370 363 363 359 349 344 344 345 342 344 345 343 342 342 342 342 341 341 344 346 347 348 348 349 349 349 351 351 352 353 353 353 353 350 350 350 348 348 347 348 348 347 346 346 348 349 349 349 350 351 351 350 351 351 351 352 354 355 351 349 351 352 352 353 352 352 353 354 353 352 352 353 353 354 354 354 354 352 350 348 346
354 356 357 356 357 359 364 366 366 365 365 368 366 363 367 373 370 363 364 363 357 350 345 344 345 345 346 343 342 343 343 341 340 341 345 347 348 348 348 348 348 349 350 351 351 352 353 353 353 351 351 351 349 348 347 348 348 348 348 347 347 348 349 350 350 350 350 350 349 349 350 352 354 355 352 350 350 352 353 353 354 353 354 355 353 352 352 353 354 355 355 355 354 352 350 348 347
355 357 357 358 356 357 366 368 366 367 366 366 365 366 371 372 370 367 362 364 366 362 352 345 344 345 345 344 342 344 344 341 340 343 347 348 348 348 348 347 348 349 350 351 351 352 352 353 352 352 352 352 351 349 348 348 348 349 349 348 347 347 348 350 350 350 352 352 350 350 352 354 355 354 353 352 351 353 352 353 354 353 355 355 353 353 353 354 356 356 356 355 353 351 350 350 352
356 356 356 358 357 360 367 367 365 367 367 364 363 368 372 369 370 369 363 365 366 367 368 359 351 346 345 346 344 343 344 341 341 345 347 347 348 348 348 348 348 348 348 350 351 350 352 352 353 352 352 353 352 349 348 348 349 349 348 348 348 348 348 350 351 351 353 353 350 351 352 354 354 354 355 353 352 353 353 354 354 352 355 356 354 354 355 356 357 356 355 354 353 351 350 352 352
356 356 356 357 360 363 365 366 365 365 367 365 364 365 367 367 370 367 362 365 365 363 370 371 365 357 348 344 345 344 344 342 343 345 346 347 347 348 348 348 348 348 348 349 349 351 352 353 353 352 352 352 350 349 347 348 349 349 348 348 348 349 350 351 351 352 355 353 351 352 353 353 353 353 355 355 354 354 353 353 355 353 354 355 354 355 356 355 356 357 355 355 354 351 351 353 352
355 354 352 355 361 360 359 364 364 363 366 365 363 362 362 365 368 367 362 365 367 362 367 373 368 363 357 346 343 346 344 344 346 345 346 347 347 348 348 348 348 348 349 348 349 350 351 352 352 352 352 351 351 349 347 350 351 349 350 348 347 349 349 351 353 354 355 354 352 353 353 351 350 351 355 356 355 355 354 352 354 353 353 353 354 356 356 355 356 356 356 355 355 352 352 353 351
351 354 352 357 361 358 359 363 362 363 363 363 360 356 359 363 366 370 368 366 367 364 367 374 368 362 363 355 346 346 345 344 346 347 347 347 348 348 348 348 349 348 349 349 349 350 351 352 352 352 353 352 352 349 348 351 352 350 351 350 349 349 350 350 353 354 354 354 353 353 353 351 349 350 353 355 354 354 353 353 353 353 352 352 353 355 356 355 355 355 356 356 355 353 353 353 353
341 350 356 360 362 361 363 363 359 358 358 360 358 352 355 361 363 368 371 369 368 366 367 372 368 361 362 361 349 345 346 344 346 347 346 347 348 348 350 350 349 349 349 350 349 350 351 352 352 352 352 352 351 349 350 352 352 350 351 351 350 350 350 349 351 353 353 354 353 352 354 353 350 350 352 354 355 354 355 355 355 353 351 352 354 355 354 354 353 355 356 356 355 354 353 352 352
329 341 355 361 362 362 362 359 354 353 355 360 360 355 354 357 361 366 369 371 369 367 368 368 367 361 361 364 354 346 346 345 345 347 346 347 347 349 350 350 349 349 349 350 350 350 351 351 351 351 350 352 351 350 352 352 351 350 352 352 352 351 351 350 349 351 353 354 353 353 356 354 351 352 354 355 357 356 355 356 355 353 351 353 355 354 352 352 353 354 356 356 354 354 353 352 353
326 340 355 360 362 363 361 355 353 355 356 358 360 360 355 353 360 366 367 370 370 368 368 367 365 361 359 362 357 349 346 345 345 346 347 346 348 350 351 350 351 349 349 350 350 350 351 350 351 351 349 350 350 350 350 352 351 351 351 351 351 352 351 350 351 351 353 355 353 355 356 354 353 356 356 357 357 356 355 355 355 355 353 354 355 354 353 353 354 356 356 355 354 354 353 354 354
338 352 357 358 362 363 360 355 355 356 355 354 357 357 354 351 360 368 366 366 368 368 367 366 365 360 357 358 357 351 347 347 345 345 346 346 348 351 351 351 352 350 351 351 351 350 350 351 351 351 349 349 350 351 350 350 351 351 351 351 352 352 351 350 351 351 354 355 355 356 355 353 355 357 357 357 357 358 356 354 354 355 355 354 355 356 354 354 354 355 354 352 353 354 353 354 355
343 355 357 358 361 360 357 355 353 350 348 350 352 351 352 352 357 364 364 363 365 367 365 366 365 359 356 356 356 351 349 348 345 345 346 346 348 352 351 352 352 352 352 351 352 352 351 352 352 351 350 348 349 351 350 349 350 351 350 350 351 351 351 352 352 352 354 355 355 356 354 354 357 357 356 357 357 357 355 354 354 355 356 356 355 356 354 354 353 353 353 353 354 354 353 354 354
342 353 356 356 357 358 358 356 351 342 341 346 347 349 352 351 356 360 361 362 363 365 365 366 366 359 355 357 355 351 350 348 347 345 345 346 349 351 352 352 352 353 352 352 354 352 352 352 352 351 350 350 350 350 350 349 349 351 350 351 352 351 353 353 353 354 355 355 355 356 355 355 356 357 357 357 357 357 355 355 354 353 355 356 355 355 354 354 354 354 355 355 355 354 354 354 354
337 347 352 349 349 349 348 348 344 338 342 349 349 352 350 345 353 361 361 361 359 360 363 365 366 361 356 356 354 351 349 349 348 347 346 346 349 351 352 352 352 354 353 354 354 353 353 353 352 351 351 351 351 350 351 351 350 351 351 353 354 353 354 353 353 354 355 355 354 354 355 356 356 356 357 357 357 357 356 356 355 354 356 356 355 355 354 355 355 355 356 356 355 354 354 354 354
333 338 338 338 341 340 339 342 343 339 344 352 351 352 349 346 356 363 361 360 358 357 358 360 363 360 356 356 355 351 350 349 348 348 348 347 349 351 352 352 352 353 354 354 355 354 353 354 352 352 352 352 351 349 351 352 351 351 353 355 355 354 354 352 353 353 353 353 352 352 354 354 355 357 357 357 357 357 357 356 356 357 357 356 356 356 355 355 355 355 356 355 355 355 353 354 354
329 331 326 328 335 336 333 337 342 343 346 350 352 353 350 348 356 363 360 358 357 355 356 357 359 359 356 357 355 352 350 349 348 349 349 348 349 350 352 352 351 353 354 354 356 355 354 354 353 352 353 353 350 350 351 352 351 352 353 354 353 353 353 352 352 352 352 352 351 352 354 354 355 356 356 356 355 356 356 356 356 358 358 357 357 355 355 356 355 355 356 356 356 356 355 355 355
327 332 330 327 332 332 329 332 340 346 349 349 348 350 348 345 353 363 359 355 355 354 353 356 357 358 357 355 356 356 352 349 350 350 350 350 349 349 351 351 351 352 354 355 356 356 355 355 353 353 354 353 351 351 352 352 351 351 353 352 351 351 350 351 352 351 352 353 353 353 354 355 355 355 355 355 355 356 356 356 357 358 358 357 357 356 356 356 356 355 355 356 356 356 357 357 357
327 332 328 323 330 333 329 334 341 343 349 352 347 347 351 355 362 366 360 355 355 354 353 355 357 358 357 357 358 358 354 350 349 350 351 351 350 349 350 351 352 352 354 355 356 357 356 355 354 354 354 354 352 352 353 353 351 351 351 351 351 350 350 351 351 350 352 353 354 354 354 355 355 354 355 356 356 355 355 356 357 357 356 357 357 357 356 356 356 356 356 356 356 355 356 356 357
327 325 322 325 331 332 325 325 332 336 341 346 343 345 354 357 362 364 360 358 356 355 354 356 358 358 358 358 357 357 357 353 352 351 351 351 350 350 349 349 351 353 354 355 357 356 357 356 355 354 355 355 354 353 353 354 352 351 351 350 351 352 350 351 351 350 351 352 354 354 355 356 356 355 355 355 356 355 354 355 356 356 356 357 357 358 356 356 355 355 356 357 355 354 356 355 355
326 317 321 328 328 332 330 322 322 328 337 343 342 345 347 345 354 365 362 361 360 358 356 355 358 359 358 358 356 356 359 357 354 351 350 350 349 350 349 349 349 353 355 356 357 357 356 356 355 354 355 355 355 354 354 353 352 352 351 349 350 351 351 351 352 351 350 351 352 353 355 357 357 356 355 355 356 357 355 355 355 355 356 357 358 357 356 355 356 355 355 355 354 354 355 355 355
326 319 323 325 319 323 327 320 317 320 333 346 345 345 347 345 352 361 361 364 364 360 358 357 359 359 358 357 357 357 359 359 357 353 349 349 349 349 350 348 349 352 355 357 356 357 357 357 357 355 355 356 355 355 354 354 354 354 354 351 350 353 352 352 353 352 351 351 352 353 354 355 357 357 356 355 356 357 356 355 354 356 357 357 358 358 356 355 357 358 357 355 354 354 354 354 356
324 322 323 323 320 323 321 319 322 321 330 344 343 340 347 350 356 360 360 364 365 362 360 357 358 359 357 357 357 359 360 360 361 358 352 348 347 349 349 347 350 352 354 357 357 358 358 358 358 356 356 357 357 356 356 355 355 355 356 354 352 353 354 354 355 354 353 353 354 355 355 356 356 356 357 356 356 356 356 354 353 355 356 357 358 358 356 355 356 359 358 355 353 354 355 354 355
319 317 316 317 319 323 320 319 325 324 331 343 343 342 348 355 363 366 362 362 362 363 362 358 356 356 356 356 356 359 360 362 364 364 360 350 345 348 348 347 351 352 354 356 357 358 359 358 359 358 358 358 358 358 357 356 356 356 357 356 355 355 356 355 356 355 355 356 357 357 356 356 356 355 356 356 354 356 356 355 354 355 357 358 358 359 357 357 357 357 356 353 353 355 356 355 354
322 318 318 318 317 317 315 318 324 322 325 335 342 346 352 360 365 365 366 369 366 363 362 359 356 355 355 356 356 358 359 360 361 364 365 355 345 346 348 347 350 353 354 356 357 358 359 358 359 359 358 360 359 360 359 358 357 356 357 357 356 357 356 357 357 356 357 358 357 357 357 356 356 356 355 355 355 356 356 356 355 356 358 357 358 358 358 358 359 358 357 355 355 357 357 356 354
Wind_Speed
5 5 6 5 3 1 1 1 1 2 2 4 1 1 1 1 4 6 6 6 5 2 6 9 9 7 5 3 7 6 6 2 2 4 2 4 19 23 18 17 17 16 16 14 13 12 11 11 11 12 12 13 13 13 13 13 13 13 14 14 14 14 14 14 13 12 13 14 15 16 17 18 16 16 17 18 18 16 16 16 16 16 15 16 16 16 17 18 18 18 18 18 19 19 19 19 19
8 5 4 4 2 0 0 0 1 2 3 4 1 1 2 2 6 7 8 8 6 5 10 11 9 10 8 6 7 7 7 6 2 4 3 15 24 18 17 17 17 18 16 14 13 13 11 11 12 12 13 12 13 13 12 12 13 13 13 14 14 15 15 15 14 14 14 14 15 16 17 17 16 16 16 17 18 17 16 16 16 16 15 15 16 16 16 18 19 19 18 18 18 18 18 18 18
8 3 2 2 2 1 0 1 2 2 4 4 0 1 1 4 6 9 11 11 10 10 11 10 9 6 6 6 5 6 3 6 5 5 6 18 19 14 18 17 18 19 16 15 13 13 12 12 11 12 12 12 12 12 12 12 12 13 13 13 14 14 14 15 15 14 14 15 15 17 17 16 16 17 16 16 17 17 16 15 15 15 15 14 15 16 16 17 18 18 19 18 18 18 18 18 17
5 3 3 2 1 0 1 2 1 3 3 3 2 2 2 6 7 8 10 11 10 10 9 8 6 2 7 10 5 6 4 3 6 7 7 13 15 18 20 18 20 18 15 14 13 13 12 12 11 11 11 11 11 10 11 11 12 12 12 13 13 14 14 15 15 14 14 15 16 17 16 16 16 17 15 15 17 16 15 15 15 14 14 14 14 15 16 17 16 16 18 17 17 17 17 17 17
2 3 3 2 1 0 1 1 1 3 3 3 3 1 3 7 7 7 8 10 10 10 9 7 6 4 8 8 3 4 5 4 6 8 9 12 19 22 20 20 19 16 14 14 14 14 13 12 12 12 11 11 10 10 11 11 12 12 12 13 13 13 14 15 15 14 14 15 15 16 16 16 16 16 15 15 17 16 15 15 14 14 14 14 14 15 16 17 15 15 16 17 16 16 16 17 17
3 2 2 2 0 0 1 2 2 2 2 3 3 3 6 6 6 8 9 10 9 9 9 8 10 9 7 5 4 4 6 7 7 9 14 18 22 22 20 20 18 15 13 14 15 15 14 12 12 12 12 11 11 11 11 12 12 13 13 13 13 14 14 15 16 15 15 15 15 16 17 17 16 16 16 15 17 16 15 15 14 14 14 15 15 14 15 16 15 15 15 16 15 15 16 16 15
5 2 1 1 1 1 2 2 2 1 1 3 2 4 6 5 6 9 10 9 9 10 10 10 11 11 7 4 5 7 10 10 10 12 19 23 23 22 21 20 19 16 14 15 16 15 15 12 12 12 12 12 12 12 12 13 12 13 14 14 14 14 15 15 16 16 16 16 15 17 18 18 16 16 16 16 16 15 15 15 15 15 14 15 15 14 15 16 15 15 15 15 15 14 14 15 14
2 2 0 1 1 1 2 2 1 1 1 2 2 4 7 7 7 8 10 9 8 9 10 10 10 12 8 5 5 9 15 15 16 20 24 24 22 21 21 22 21 17 15 17 15 15 14 12 12 12 13 13 12 13 12 13 13 13 14 14 14 14 16 16 16 16 16 16 16 18 18 18 17 16 16 16 15 14 14 15 16 16 16 16 15 14 14 15 14 14 14 14 14 14 14 14 14
2 1 1 1 1 2 2 2 1 1 1 1 3 4 8 8 7 7 9 8 8 9 11 9 8 12 9 8 8 8 16 20 23 25 25 22 22 22 22 23 19 17 17 16 15 14 13 12 13 12 12 12 12 12 12 13 13 13 14 15 15 15 16 16 16 17 17 16 16 18 18 18 17 16 16 16 15 14 14 15 16 17 17 16 15 14 14 14 14 14 14 13 13 13 13 14 13
3 3 1 1 1 2 3 1 1 0 2 3 3 5 7 5 5 7 9 9 10 10 11 8 9 14 11 10 8 7 17 25 27 25 23 22 23 24 23 21 18 19 18 17 16 14 13 13 13 12 12 12 12 12 12 13 13 13 14 15 15 15 16 16 16 16 17 16 16 17 18 18 17 17 16 15 15 14 14 15 15 16 16 16 15 15 14 14 13 13 13 13 13 12 13 14 13
2 2 0 1 2 2 3 2 1 0 3 3 1 4 4 5 7 8 11 10 10 13 13 9 11 15 13 9 5 11 24 27 25 24 24 24 24 23 21 20 19 19 18 17 16 15 14 13 12 12 12 12 12 12 12 12 13 14 15 16 14 15 16 16 17 16 16 16 16 16 17 17 16 17 17 15 15 15 15 14 14 15 15 14 14 14 14 13 13 13 13 13 12 12 13 13 13
1 2 2 2 2 1 2 3 3 1 2 0 2 2 2 8 11 11 13 12 12 15 11 7 10 11 12 8 4 15 25 24 24 25 26 24 23 22 21 21 20 19 18 18 17 16 15 14 13 12 12 11 12 12 12 12 13 14 16 17 15 15 16 17 18 17 16 16 17 17 17 17 16 16 16 15 15 15 14 13 13 13 13 13 13 13 13 13 13 12 12 13 12 12 12 12 13
1 1 2 1 1 0 2 3 2 1 2 2 2 2 3 9 13 14 13 14 14 13 8 8 11 10 11 7 6 13 18 24 26 26 26 24 22 21 20 20 19 18 18 18 17 17 15 14 12 11 11 11 11 12 12 13 13 14 17 17 15 15 16 18 18 18 17 17 17 17 17 17 17 17 17 16 14 14 13 13 12 12 13 13 13 13 13 13 12 12 12 12 12 12 12 12 13
2 1 1 1 2 1 1 2 1 3 3 1 1 1 4 5 10 13 14 13 9 10 11 11 12 11 11 8 7 7 12 26 29 25 25 23 21 20 19 18 17 16 17 19 18 17 16 14 13 11 12 12 12 12 12 12 12 14 16 18 16 14 16 17 18 18 18 18 17 17 17 17 17 17 17 16 14 13 13 13 12 12 12 12 12 12 12 12 12 12 12 12 12 12 13 14 13
3 1 0 1 1 1 0 1 2 4 3 2 2 0 5 3 5 9 12 12 6 10 14 11 10 8 10 10 8 8 17 30 29 27 26 23 21 19 18 18 17 16 17 18 17 17 16 15 13 12 12 13 14 13 12 13 13 13 16 18 17 15 16 17 18 18 18 18 18 17 18 18 17 17 17 15 14 13 13 12 12 12 11 11 11 11 11 12 12 12 12 12 11 12 14 15 14
3 2 1 1 1 3 1 2 2 4 3 2 3 1 6 2 4 6 8 12 9 11 12 10 7 6 11 11 12 18 27 32 30 29 27 24 22 20 19 18 17 16 15 16 16 16 16 15 14 13 13 14 15 14 14 14 13 14 15 17 18 17 17 18 18 18 18 18 18 18 18 19 19 17 16 15 14 13 11 11 11 11 10 10 10 10 11 11 12 12 12 12 12 13 15 16 14
3 2 1 0 2 3 4 4 4 3 3 2 4 1 6 2 2 3 6 13 14 11 9 9 8 9 12 13 21 29 31 32 30 29 26 24 21 19 18 17 17 16 15 15 16 16 15 14 13 13 15 16 16 16 15 15 14 15 15 16 18 19 20 20 19 19 19 19 19 18 19 20 19 17 15 14 13 12 11 10 10 10 10 10 10 10 10 11 12 12 12 13 14 15 15 15 14
3 2 2 2 3 4 4 6 4 2 4 3 3 2 7 5 2 3 6 10 12 10 9 10 11 12 14 19 28 31 31 31 29 27 23 21 20 17 16 16 17 16 17 16 15 15 13 12 13 14 15 17 18 18 17 16 16 17 16 17 18 19 20 21 20 20 20 19 19 20 20 20 19 17 15 14 12 12 11 10 10 10 10 11 11 11 10 10 12 12 13 15 16 16 15 14 13
2 2 2 3 5 4 4 6 4 2 5 5 3 3 5 5 4 5 7 8 11 11 10 13 14 14 15 20 27 28 29 28 26 25 22 20 18 17 15 15 16 17 18 16 15 14 12 13 13 14 16 17 17 18 18 18 18 18 18 19 19 19 20 21 21 21 21 20 19 20 20 19 18 16 15 13 12 11 10 10 10 10 11 11 11 11 11 11 12 13 15 17 17 15 14 12 11
2 2 2 3 4 3 5 7 4 1 4 6 3 2 2 4 3 4 9 11 11 12 12 15 16 16 15 15 22 27 26 24 24 23 21 20 18 17 16 16 16 17 18 17 17 14 12 13 14 14 15 16 18 19 19 20 20 20 20 20 20 21 21 21 21 21 21 20 19 18 18 17 16 14 13 12 12 12 11 11 11 12 12 12 12 12 12 12 13 14 16 16 15 13 12 10 9
2 3 2 1 1 1 4 6 0 5 1 6 4 3 1 4 1 3 11 11 7 10 13 17 19 19 17 14 19 25 23 22 22 21 20 19 17 17 17 17 17 18 18 17 16 15 13 14 15 15 16 16 18 20 21 21 21 21 21 21 21 22 22 21 20 20 20 19 19 18 18 17 16 15 13 13 13 13 12 12 12 13 13 12 12 12 12 12 12 13 14 14 13 12 11 10 9
2 2 1 3 1 1 5 5 4 7 3 1 4 4 2 1 2 3 11 10 6 9 14 19 20 19 17 14 18 22 21 21 21 20 20 19 18 17 16 17 18 18 18 18 17 16 14 14 15 16 17 17 19 20 22 22 22 22 22 22 22 21 20 20 19 19 19 18 18 18 18 17 16 15 14 14 14 13 13 13 13 13 12 12 11 10 10 9 9 10 11 11 10 9 9 8 8
2 1 3 4 1 2 6 7 6 8 5 4 2 1 2 2 2 3 9 9 7 10 16 18 19 21 20 17 18 17 16 17 18 20 21 21 19 18 18 18 18 19 19 19 19 17 15 14 15 16 18 18 19 20 22 22 22 22 22 21 20 19 18 18 18 18 17 17 18 17 17 17 17 16 15 15 14 14 14 14 14 13 12 11 10 8 7 6 5 6 6 7 7 7 6 6 6
2 3 4 4 4 7 7 7 9 9 7 2 7 4 5 4 2 3 7 10 10 14 16 17 19 22 20 16 15 14 15 17 18 20 23 22 21 20 20 19 20 20 19 20 19 18 17 16 15 17 18 19 19 20 22 22 21 20 19 19 18 17 17 17 17 16 16 16 16 16 16 17 17 17 17 17 16 16 15 14 13 11 10 8 7 6 5 5 4 3 3 4 5 5 6 7 7
1 5 4 3 5 7 6 8 10 9 8 2 7 3 4 3 2 2 7 13 14 16 16 17 18 18 16 14 14 13 13 17 19 20 21 22 22 21 20 20 20 20 20 20 20 19 19 17 16 17 18 19 19 21 22 21 20 18 17 17 16 15 15 16 15 15 14 15 15 15 15 16 17 18 18 17 16 15 13 11 10 8 7 6 5 4 3 2 2 2 2 3 3 5 7 8 8
2 6 6 6 7 5 5 8 9 7 6 5 6 5 3 3 4 2 9 14 15 17 17 17 16 15 14 13 13 12 12 16 20 19 20 22 23 21 20 21 20 20 21 21 20 20 19 17 16 17 18 19 20 21 21 20 19 18 16 15 14 14 14 15 15 15 15 15 16 15 15 17 18 17 17 16 15 13 10 8 7 6 5 4 3 3 2 2 2 2 2 3 3 3 4 6 7
7 10 9 9 8 4 5 8 9 7 6 7 4 5 5 6 5 3 9 14 17 17 16 16 14 14 15 13 12 14 13 15 19 20 21 22 21 22 21 20 20 20 21 21 20 20 19 19 18 18 19 20 22 22 21 19 18 17 15 14 13 14 15 16 16 15 16 17 17 16 16 17 16 15 15 15 13 11 9 7 6 5 4 3 3 3 4 3 3 3 2 2 2 1 1 1 3
11 12 12 10 7 4 6 9 9 7 5 5 5 3 7 7 4 5 10 14 18 17 16 15 13 13 14 14 12 12 13 15 19 22 23 21 21 23 23 21 21 21 23 22 20 19 19 20 20 19 20 20 21 21 20 19 18 16 15 14 15 16 16 16 16 16 17 17 17 17 17 16 14 14 14 12 11 10 8 7 6 5 4 3 3 3 3 2 3 3 2 2 2 1 1 0 0
8 7 11 9 6 5 5 6 7 8 3 0 5 5 5 5 3 6 11 13 16 16 16 14 12 12 12 13 11 9 12 15 18 22 23 23 23 25 25 24 23 22 23 22 21 20 20 21 20 20 19 17 19 20 19 19 18 17 16 17 18 18 18 17 17 17 17 16 16 16 16 15 14 13 11 9 9 8 8 7 5 5 5 4 2 2 3 3 3 2 2 3 2 2 3 2 0
4 4 8 7 4 3 5 3 6 8 4 2 3 4 3 7 8 6 11 13 15 15 14 13 11 11 11 10 9 7 11 14 15 20 24 24 25 26 26 25 24 23 23 22 22 22 21 21 21 21 19 17 19 19 19 19 18 18 18 19 19 18 18 17 16 16 15 15 15 15 15 14 13 11 9 8 8 8 8 7 6 5 5 5 3 3 5 4 3 3 2 3 3 3 4 2 1
3 3 4 4 4 2 1 2 5 6 1 2 3 4 6 8 7 7 11 14 16 14 13 12 10 10 9 10 10 7 11 15 16 20 24 25 25 26 27 26 25 24 24 23 24 23 21 21 22 22 19 19 21 20 19 19 18 19 19 19 18 18 17 16 15 14 13 12 12 13 12 11 10 10 8 8 8 9 8 7 7 6 6 6 5 5 6 5 4 3 3 2 1 3 3 2 1
1 3 1 1 3 4 4 3 3 6 2 2 3 4 3 5 6 6 10 13 15 15 13 12 10 10 9 10 10 8 9 14 18 21 24 25 25 26 28 27 26 27 26 24 25 23 21 21 22 20 20 21 21 20 19 19 19 19 19 18 18 17 16 15 15 13 11 10 11 11 11 10 11 10 8 8 9 10 9 8 9 7 6 6 6 7 6 5 4 4 3 2 1 1 2 2 0
2 2 2 2 4 5 4 1 0 7 5 1 3 3 2 3 5 3 7 13 14 14 12 11 11 9 10 9 9 9 8 10 14 19 24 25 25 27 29 29 28 29 27 26 25 23 20 21 21 20 20 20 20 20 19 19 19 19 18 18 18 17 17 16 15 14 11 11 11 12 11 11 11 10 9 9 10 10 10 9 8 7 6 6 6 6 6 4 4 3 4 3 2 1 1 1 1
2 2 2 1 4 5 6 3 2 4 5 2 4 1 3 3 3 2 5 10 12 13 11 11 11 9 8 9 9 9 8 8 10 16 23 25 25 28 30 30 29 29 28 27 26 23 21 20 20 20 20 19 19 19 19 18 18 18 18 18 18 18 17 16 15 15 14 14 14 14 13 12 11 10 11 11 11 11 11 9 8 7 6 5 5 6 6 5 4 3 3 3 2 2 1 0 1
5 4 3 2 3 4 6 7 6 6 5 3 4 1 7 4 1 2 2 6 10 11 11 11 12 10 8 8 10 9 8 8 11 18 24 25 27 28 30 30 28 28 28 28 27 25 23 22 20 20 20 19 18 18 18 18 17 17 19 20 20 19 17 17 16 16 16 16 16 16 15 13 11 10 11 12 12 11 11 9 8 7 5 4 5 6 6 5 4 3 3 3 3 2 2 2 2
9 7 5 5 4 2 4 5 6 9 7 5 3 2 6 3 2 3 4 1 6 7 9 11 11 9 8 9 10 8 8 9 12 20 25 26 28 28 29 29 27 27 29 29 28 27 26 24 23 22 22 21 20 19 19 18 17 17 18 20 20 19 18 18 18 17 16 16 16 16 15 14 12 10 10 11 11 11 11 8 7 7 5 4 4 5 6 5 4 4 4 4 4 3 2 2 3
10 7 5 6 5 2 2 4 5 8 6 6 7 1 4 3 4 4 6 3 4 5 6 10 11 10 9 10 10 9 8 10 14 22 26 27 28 28 28 26 26 27 29 29 29 28 28 27 26 25 23 22 22 22 21 20 20 19 19 20 20 19 19 20 20 18 15 13 14 15 15 15 13 11 10 11 11 12 10 8 6 6 5 4 4 5 6 4 4 4 5 5 4 3 3 3 5
10 7 6 5 4 2 2 4 5 5 3 6 9 5 2 2 3 3 4 4 3 5 3 4 8 10 10 11 11 9 8 9 13 19 23 26 26 27 27 25 27 29 29 30 30 29 29 28 27 26 23 22 23 25 24 22 21 20 19 19 19 19 21 21 21 19 16 12 12 14 15 14 13 11 10 10 11 11 10 8 6 6 5 4 4 5 5 4 3 4 5 6 4 3 5 5 6
8 6 6 5 4 4 4 4 5 4 1 4 7 5 3 1 4 5 2 2 2 1 2 1 2 3 6 12 11 9 10 9 11 15 19 24 25 26 26 25 28 29 29 30 30 30 30 28 28 27 24 22 24 25 25 22 20 19 17 17 17 18 20 19 18 17 15 12 12 13 12 13 14 11 10 10 10 11 10 8 6 6 7 4 3 4 4 3 3 3 4 5 3 3 5 6 6
6 7 6 4 7 5 1 4 7 2 1 4 7 4 1 3 4 6 2 2 2 3 1 1 0 1 4 9 10 10 12 11 12 13 16 21 24 25 25 24 26 28 28 29 30 30 29 29 29 28 26 24 24 25 25 21 18 18 16 15 16 15 16 17 16 15 14 12 11 11 10 12 14 12 11 10 10 10 9 8 7 7 6 4 3 3 2 1 1 1 2 3 4 3 5 6 6
7 9 7 7 10 7 3 8 8 3 2 5 9 4 0 1 3 6 4 2 0 3 2 4 3 2 3 6 8 12 14 12 13 14 15 19 22 23 24 25 26 27 27 28 30 30 30 30 29 28 27 26 25 25 25 19 16 18 16 16 17 15 14 17 16 15 14 13 11 11 10 11 12 12 12 11 9 9 8 8 8 7 6 5 4 3 2 2 1 1 2 2 4 4 5 6 7
5 9 11 14 14 8 10 14 9 4 0 4 7 4 2 3 4 7 5 2 2 2 1 4 6 4 2 4 7 11 13 12 14 15 16 19 21 22 23 26 27 26 27 29 30 30 30 31 30 28 27 27 26 26 24 18 18 20 19 19 19 17 16 18 17 16 16 15 13 12 10 9 10 11 11 10 8 8 8 8 8 7 6 5 4 3 2 3 2 1 2 2 3 4 4 5 7
3 8 12 15 13 12 17 18 9 3 3 5 7 4 3 3 6 9 7 5 7 4 4 5 6 4 3 5 6 9 11 11 13 14 16 18 21 21 22 25 27 26 26 28 29 29 30 31 30 27 26 28 28 26 23 19 20 20 19 20 21 19 18 18 18 17 16 15 14 13 10 9 11 11 10 9 8 9 9 9 8 7 6 6 5 3 2 3 3 3 3 2 2 4 4 5 6
3 7 14 17 15 15 18 15 6 3 3 3 5 2 3 4 7 10 9 8 10 9 7 7 7 6 5 5 6 8 11 11 12 13 14 17 21 23 24 26 27 27 27 27 28 28 30 31 30 27 26 28 28 26 24 22 22 20 19 22 21 19 19 18 17 16 15 14 14 12 11 11 12 11 10 9 9 9 9 10 9 7 7 6 6 4 3 3 4 4 3 1 1 3 5 5 5
3 7 17 17 16 16 15 10 4 2 4 3 6 4 1 2 3 6 8 9 12 13 13 11 9 9 7 7 7 8 10 11 11 13 14 18 22 25 28 28 28 28 28 27 27 28 29 30 30 27 26 28 29 27 25 24 22 20 20 22 21 19 19 17 16 17 17 16 15 13 11 13 13 12 11 11 10 9 9 10 10 8 7 7 6 4 3 5 6 4 3 2 2 3 4 4 4
5 12 14 9 10 13 11 6 4 4 2 2 9 8 3 1 2 6 6 8 13 14 13 11 11 11 10 8 7 8 10 10 10 13 16 20 24 27 29 29 28 28 29 28 27 27 29 30 30 28 27 28 29 27 26 25 24 21 21 21 20 20 20 18 17 18 18 18 17 15 13 14 14 13 13 12 11 10 9 10 10 9 8 7 6 5 4 7 7 4 3 3 4 3 3 3 2
9 13 11 9 7 5 4 2 3 3 2 4 11 12 5 1 3 6 8 12 16 14 10 10 11 12 12 9 7 8 10 10 9 11 16 22 26 28 28 28 28 28 29 28 27 28 29 30 31 30 28 28 29 27 26 26 25 23 22 22 21 22 21 19 19 20 19 19 19 17 16 16 15 14 14 14 12 10 10 10 9 9 8 8 7 5 5 7 7 5 4 5 4 4 4 3 2
8 9 8 8 3 2 3 4 3 2 3 4 9 11 6 2 3 7 12 14 14 14 12 13 14 14 13 10 8 8 10 11 10 9 13 18 22 25 27 27 27 28 28 28 28 29 30 30 31 30 29 29 30 28 27 26 25 24 23 22 21 22 21 20 21 22 21 20 20 19 18 18 17 15 15 15 14 12 11 10 9 8 8 9 8 6 7 8 7 6 6 6 5 4 5 4 3
6 7 7 7 2 1 1 1 1 2 4 3 8 10 4 4 4 9 15 14 10 13 15 16 16 15 14 11 8 7 9 12 11 9 11 13 16 21 25 26 26 28 29 29 29 29 30 30 31 31 30 30 31 30 27 26 26 25 25 23 21 21 21 20 20 20 21 21 20 20 20 19 19 18 16 16 15 14 13 12 11 10 9 9 8 8 7 8 8 8 8 7 6 5 6 5 3
4 7 7 6 4 3 3 2 1 2 4 1 7 7 2 4 3 6 15 16 12 12 14 15 16 15 14 12 9 7 9 12 11 11 11 11 15 21 25 26 26 28 30 30 29 30 30 30 31 31 30 30 32 31 29 27 27 27 26 24 22 22 22 21 20 19 20 20 19 21 22 20 20 20 18 16 15 15 14 13 13 12 11 10 10 10 8 8 9 9 9 9 7 6 6 4 3
0 4 5 5 5 5 5 4 3 3 2 2 5 4 2 2 3 5 10 13 11 11 12 13 13 13 13 11 8 8 9 11 11 11 11 12 18 23 25 26 26 28 31 31 30 30 30 30 31 31 30 31 31 31 29 28 28 28 27 25 22 22 22 22 22 20 20 20 19 21 22 20 20 20 18 16 15 15 15 14 14 13 12 12 12 11 9 9 10 10 10 10 9 7 6 5 4
3 2 4 3 5 5 3 3 5 4 2 3 3 3 3 3 3 4 5 8 10 10 10 11 12 13 12 10 9 8 8 10 11 11 11 13 20 24 24 26 27 28 31 31 31 31 31 31 32 32 31 31 32 31 30 29 28 28 28 26 23 22 21 22 23 23 21 20 20 21 21 20 19 19 18 16 15 16 15 14 15 15 14 14 13 13 11 10 11 11 11 11 9 8 8 7 6
2 0 2 4 4 6 3 0 2 5 3 1 2 3 3 1 3 2 5 8 9 10 11 13 13 14 13 12 11 8 7 9 10 11 12 13 19 23 24 26 27 28 30 32 32 33 33 33 33 32 31 30 31 31 30 29 28 28 29 28 24 22 21 22 24 24 22 21 21 20 21 20 19 19 19 18 16 16 16 16 17 16 15 15 15 14 13 12 13 12 12 11 10 10 9 8 7
3 0 4 3 2 4 3 1 2 3 2 2 3 3 3 1 2 1 6 8 9 10 12 13 13 14 14 13 12 10 8 7 8 11 13 15 19 23 24 26 29 30 31 33 34 35 35 35 34 33 31 31 32 31 31 30 29 29 28 29 26 23 23 23 23 23 23 22 22 21 21 21 20 19 19 19 17 17 18 18 18 18 17 16 16 15 14 14 14 13 12 11 10 10 11 10 9
4 3 2 1 2 1 1 2 1 1 1 2 3 3 3 3 2 2 6 9 10 10 10 12 14 14 14 13 12 11 8 7 7 9 10 12 19 24 25 25 29 32 33 34 35 35 34 34 35 35 34 33 32 31 30 30 30 29 28 29 27 25 23 23 22 23 23 23 22 21 21 22 21 19 18 19 19 18 18 18 19 18 17 17 16 15 14 15 15 13 12 11 10 11 11 11 10
1 2 3 1 3 3 2 2 3 3 2 2 1 2 2 3 3 3 6 8 9 9 9 10 13 14 13 12 12 10 8 6 6 7 8 10 18 26 27 27 29 33 34 34 35 35 35 34 34 34 34 32 31 30 30 29 30 29 27 27 28 26 25 24 22 22 22 22 21 21 20 20 20 19 18 19 19 19 19 18 19 19 18 17 16 14 14 14 15 15 13 12 11 11 11 10 10
2 1 2 1 1 1 1 1 2 4 3 2 1 1 4 3 3 4 6 8 8 9 8 8 10 12 11 11 11 9 6 5 4 5 6 8 16 25 28 28 31 34 34 34 34 33 33 34 33 33 32 31 30 29 28 28 29 28 26 27 27 26 25 25 23 22 22 22 21 21 21 20 19 19 19 18 19 20 19 19 19 19 18 18 17 16 14 14 15 15 14 12 11 11 11 10 9
5 4 4 4 3 1 1 3 3 2 4 4 4 2 5 3 3 4 2 5 6 8 9 8 7 10 10 8 8 7 5 5 5 5 4 5 13 22 26 27 30 32 33 33 34 34 32 32 33 33 32 31 31 30 29 29 28 28 26 26 27 27 26 25 24 22 23 23 23 22 21 21 20 20 19 19 20 20 21 21 20 19 19 18 18 17 16 16 16 15 14 13 13 13 12 10 10
Wind_Direction
144 143 148 140 122 22 275 216 27 342 75 80 28 71 63 159 102 86 75 75 82 120 133 143 156 134 133 131 133 110 53 95 163 139 178 154 142 148 147 146 157 155 148 144 138 142 147 143 137 132 129 127 128 129 130 130 128 125 123 122 122 121 122 123 124 122 118 116 117 119 122 122 119 117 117 117 119 120 118 114 112 110 106 104 107 109 109 108 107 107 107 108 108 107 106 106 105
156 147 165 149 124 96 338 343 64 15 68 81 358 129 142 75 79 88 90 87 89 93 103 118 122 118 130 127 121 92 40 359 43 117 99 125 134 141 143 151 159 153 150 146 146 151 149 141 136 133 134 135 134 134 134 134 133 130 128 127 125 126 128 129 127 127 127 126 126 125 124 124 122 121 119 119 122 123 120 118 115 110 106 105 110 111 110 111 111 110 111 110 109 108 107 106 104
154 135 168 155 128 194 62 37 76 73 87 111 134 272 115 87 94 106 109 105 108 106 101 105 99 110 123 93 70 82 57 354 61 95 101 126 133 143 147 156 158 152 151 151 154 152 144 137 134 134 137 140 138 139 139 138 135 133 131 130 129 129 132 133 129 131 133 130 130 127 125 126 127 126 121 120 123 123 122 120 114 109 107 107 112 114 111 112 113 113 113 112 110 110 109 107 105
131 89 160 157 63 175 32 58 105 97 107 133 136 285 69 108 124 119 120 117 117 109 100 104 86 27 95 99 92 84 90 37 70 90 116 138 141 147 152 158 155 150 153 157 157 149 141 139 139 138 139 142 140 141 140 140 137 133 132 132 132 131 133 133 130 135 136 131 130 129 129 129 129 129 123 121 123 123 123 119 114 113 112 112 112 112 113 113 111 112 113 112 111 111 110 108 107
103 49 145 171 340 68 72 80 87 94 137 158 132 218 119 125 134 122 115 114 117 111 109 110 97 79 89 102 123 97 107 105 90 97 119 140 143 149 155 155 150 149 158 159 155 148 141 142 143 142 142 143 140 138 138 140 139 136 135 135 136 135 135 134 134 138 137 133 133 132 132 131 131 129 124 123 123 123 125 121 117 116 118 119 112 110 115 116 114 114 114 113 112 112 111 110 110
153 80 109 161 5 78 72 77 77 79 175 161 133 166 135 134 136 117 105 105 104 100 103 98 106 106 87 67 58 113 138 124 114 118 131 141 147 152 151 149 150 158 164 158 156 149 143 146 145 143 144 143 139 137 136 137 138 140 141 141 141 140 138 138 139 140 140 140 140 138 135 133 133 131 126 124 125 127 128 125 116 113 121 122 115 114 119 119 118 117 114 113 112 112 111 111 112
158 154 63 112 91 56 70 79 98 58 189 160 154 157 142 150 134 111 99 99 91 89 95 95 111 104 90 96 77 118 129 119 124 137 143 144 148 148 148 153 158 164 166 161 158 148 145 148 146 144 144 143 141 138 136 137 139 141 144 146 146 145 143 142 141 143 145 143 143 142 138 135 134 132 128 126 128 130 130 125 117 114 119 117 113 117 120 120 118 116 115 114 114 113 112 112 112
155 217 5 94 76 43 81 64 82 24 194 183 250 171 150 150 130 110 108 109 102 101 103 107 113 94 88 108 94 114 114 116 128 138 144 144 146 149 156 162 162 163 163 160 153 146 147 148 146 145 144 143 141 140 141 141 140 141 144 146 147 148 146 144 143 145 145 141 143 144 141 137 136 134 130 130 131 129 126 123 121 119 117 115 116 119 120 119 117 117 117 116 115 113 112 111 112
325 343 30 50 91 63 91 43 76 275 288 237 267 180 151 142 124 115 110 100 106 109 108 119 112 97 96 96 97 108 108 120 130 137 143 142 146 153 161 165 165 160 156 154 148 148 150 148 146 145 144 141 140 141 143 143 143 144 144 142 144 147 145 143 145 146 143 140 143 144 141 138 136 134 131 131 129 125 124 122 123 122 120 120 122 121 119 118 119 121 121 120 117 114 112 114 116
336 28 91 348 61 82 100 37 81 172 286 255 236 166 152 136 113 107 104 102 112 105 102 110 101 106 112 102 101 116 121 131 134 137 143 142 149 155 160 164 163 156 153 151 148 149 147 147 145 144 144 138 139 140 143 145 145 147 144 139 142 146 143 143 146 146 143 140 142 142 141 139 136 134 132 130 128 126 125 124 124 123 121 123 124 125 124 120 123 127 126 127 123 116 116 117 116
343 4 128 48 36 76 114 103 126 160 284 271 215 176 159 117 96 94 102 106 107 103 110 108 101 110 111 101 100 126 132 136 135 136 141 146 153 158 157 156 157 154 152 151 147 145 143 145 145 145 143 140 141 141 143 146 147 148 142 137 144 147 142 144 145 144 142 140 140 139 141 140 137 135 132 130 129 128 125 125 125 123 122 123 125 125 125 123 125 130 130 133 131 122 121 122 120
22 353 23 50 21 29 116 124 151 290 310 134 139 221 135 103 105 112 112 113 112 114 128 123 120 121 109 105 115 134 137 138 135 135 143 148 152 154 151 149 151 152 149 147 145 144 144 145 146 145 143 142 144 145 147 147 148 147 141 137 147 150 143 145 144 141 142 140 140 139 141 141 138 135 132 130 129 128 126 126 125 124 124 125 126 124 122 123 126 132 134 137 136 129 126 127 126
51 97 48 31 359 4 124 126 177 76 78 150 165 224 99 104 120 127 120 122 127 125 134 130 133 124 110 117 131 144 145 139 138 138 143 144 143 145 143 144 147 147 146 147 146 145 143 141 140 140 139 139 141 144 146 147 147 145 138 137 148 150 143 143 142 140 141 140 139 139 142 143 139 135 133 132 130 130 129 128 129 128 128 127 127 126 125 126 130 135 138 140 140 138 134 133 132
122 143 118 101 17 316 114 117 203 116 134 222 226 263 80 98 132 134 125 126 134 129 128 133 133 114 114 132 139 159 138 133 138 137 137 136 136 137 137 143 144 144 148 149 147 143 140 137 137 136 134 133 135 137 140 144 145 141 136 136 144 146 142 140 138 138 139 139 137 137 142 141 137 135 133 132 132 134 134 132 133 131 130 131 129 130 130 129 131 133 136 141 146 147 143 141 141
121 87 50 88 91 246 311 163 192 125 157 268 294 169 92 81 129 130 130 125 127 132 127 138 138 116 139 153 150 153 128 131 137 133 132 132 133 135 137 141 141 143 147 147 145 142 140 139 139 137 135 132 132 133 135 140 142 139 134 134 137 139 138 135 136 137 137 137 136 137 140 139 138 136 133 131 135 138 137 136 136 134 132 131 130 132 133 130 131 133 136 141 146 148 148 148 148
97 69 37 25 189 202 205 203 181 128 165 258 293 96 97 78 109 130 147 124 128 143 135 152 160 129 146 152 139 133 127 132 134 131 131 130 132 134 136 140 140 143 143 145 144 142 141 141 140 137 137 134 131 130 131 135 136 134 131 131 133 134 134 132 136 136 134 135 135 136 140 141 139 136 134 134 137 138 138 138 137 135 132 131 131 134 135 133 132 135 139 142 144 146 148 150 150
106 98 112 103 224 207 194 183 175 150 158 234 287 101 110 117 95 124 151 129 138 150 140 146 139 118 131 137 134 130 128 131 131 130 129 129 132 132 136 140 142 143 143 145 144 143 144 141 138 138 138 134 131 129 130 131 131 130 128 130 131 131 133 134 136 133 132 133 134 135 137 138 135 134 136 137 137 137 138 137 134 132 132 132 132 133 135 133 132 135 138 141 144 146 147 149 150
142 137 151 167 219 217 195 178 180 156 143 186 252 127 126 154 158 125 134 130 134 134 129 128 116 113 126 132 133 132 131 133 133 131 130 131 134 134 140 145 147 148 148 150 147 148 149 141 138 141 140 135 134 131 131 131 131 131 130 130 130 130 132 134 134 133 132 132 133 134 135 135 134 137 139 139 139 138 140 141 137 135 135 134 132 134 135 133 132 135 138 142 145 147 149 151 155
157 138 153 187 220 211 175 166 179 179 145 171 215 139 134 167 167 133 139 139 130 127 128 124 116 121 132 135 134 134 134 134 136 135 134 136 139 142 144 149 151 148 149 155 154 155 154 144 143 145 142 138 136 133 132 132 133 133 132 132 131 131 132 131 131 131 131 130 131 132 133 134 135 138 138 139 139 140 144 143 139 138 138 137 138 140 137 135 135 137 142 145 147 150 154 157 163
168 147 185 218 220 192 166 165 177 261 141 158 179 126 139 191 169 117 140 143 136 137 138 130 129 138 145 143 135 135 136 136 139 139 139 142 146 149 149 153 156 150 150 156 156 157 156 147 145 146 145 140 138 137 134 133 133 133 132 133 132 132 131 129 129 129 130 132 133 132 132 133 134 135 136 139 141 142 145 145 144 144 142 144 145 142 137 135 135 140 147 150 152 153 155 156 161
183 166 198 239 255 232 146 144 100 337 142 163 149 107 154 208 163 98 135 140 141 146 144 140 140 146 151 149 138 139 141 141 144 145 145 148 150 151 153 157 158 153 152 155 155 154 154 149 146 146 145 142 141 140 136 134 134 133 132 133 133 133 132 131 131 132 135 137 136 135 135 135 135 137 139 141 141 143 143 144 146 145 145 146 145 140 136 134 134 141 148 152 154 154 152 149 149
161 187 129 69 24 258 100 95 17 3 4 101 118 130 195 189 66 96 135 140 159 154 145 142 143 147 153 150 140 141 143 146 151 151 151 152 152 152 154 156 156 154 153 156 155 154 155 151 146 145 145 143 142 142 138 136 135 134 133 134 136 136 135 135 136 138 140 141 140 140 139 137 137 138 139 139 140 142 142 141 142 143 144 143 141 139 135 135 139 146 153 157 160 164 163 163 166
176 179 80 50 29 119 77 71 50 43 35 359 340 246 349 46 57 101 132 141 157 146 141 141 141 145 149 145 140 143 145 150 156 153 152 153 152 152 154 156 157 157 157 156 155 156 158 155 149 146 145 143 143 144 140 137 137 136 136 137 140 140 141 143 144 146 145 146 146 144 142 140 140 140 137 135 136 139 140 141 141 142 142 140 138 137 136 138 144 156 170 179 187 192 191 199 203
179 94 86 20 50 86 72 83 81 72 79 4 292 306 31 56 33 29 120 136 139 135 136 136 139 143 145 142 142 148 150 156 162 158 155 154 153 154 155 157 158 159 158 157 158 158 159 161 155 148 146 143 142 144 142 141 140 139 139 141 144 146 149 151 152 153 152 153 152 150 148 146 145 141 137 135 135 138 140 142 145 146 145 142 139 138 140 146 162 187 222 240 242 245 242 238 235
124 89 94 35 68 83 76 98 96 90 98 29 303 319 69 80 21 10 132 134 132 133 135 135 140 144 142 143 148 154 159 163 168 164 156 152 152 151 154 157 157 157 157 158 160 161 162 165 161 153 150 145 143 144 143 143 143 142 142 144 148 154 157 157 158 159 159 159 158 157 153 149 146 142 139 138 138 141 143 145 146 146 142 136 136 136 140 156 208 245 280 291 287 289 270 256 254
119 101 102 97 96 78 60 89 90 86 90 53 352 348 42 44 26 95 145 138 132 133 136 140 144 144 145 150 156 163 169 169 170 166 153 149 150 150 153 158 158 158 157 158 161 165 167 168 165 157 154 151 148 147 146 145 147 146 146 149 155 160 159 155 157 159 160 160 159 158 154 150 147 145 143 142 144 145 146 148 145 140 133 129 139 154 181 210 240 251 289 301 303 312 281 263 255
105 99 90 87 95 72 58 80 80 67 50 64 52 333 351 21 25 146 156 141 135 136 139 145 147 146 152 157 163 169 174 176 168 155 146 147 151 151 153 159 161 161 160 160 164 168 169 169 166 158 155 155 153 152 152 151 153 154 154 156 159 161 159 155 156 156 157 155 153 155 154 153 151 149 148 147 149 150 153 157 149 139 134 143 171 183 193 206 211 226 262 279 286 324 103 259 235
112 104 85 69 64 53 71 89 90 76 29 49 91 9 354 6 5 173 159 142 137 139 144 151 153 152 159 163 166 172 174 174 157 144 146 153 156 154 156 163 164 164 165 166 168 169 169 168 167 162 159 159 159 160 159 157 159 161 161 160 158 157 157 157 158 156 154 151 149 151 153 154 154 153 152 152 153 153 157 157 145 142 150 165 173 172 183 200 208 231 265 262 289 306 142 54 186
123 113 93 78 55 41 45 79 112 112 87 197 107 55 352 327 292 180 153 143 138 140 149 157 161 161 164 164 167 171 169 166 150 144 153 158 159 157 158 166 166 166 170 170 168 167 167 168 167 164 162 164 165 164 162 160 160 161 161 159 156 154 154 156 159 158 156 153 150 151 154 155 157 158 157 155 156 155 157 153 152 161 166 172 175 188 196 206 216 221 229 235 259 246 230 255 229
130 113 104 103 80 38 0 34 118 107 101 217 111 80 248 262 267 198 155 145 142 144 156 164 169 169 165 162 167 169 162 160 152 151 156 157 159 159 160 167 169 167 170 169 167 166 166 167 166 163 165 170 169 165 163 162 160 159 159 159 158 155 155 156 158 160 161 159 157 156 158 160 163 168 168 166 165 163 161 159 165 170 168 176 194 205 196 192 195 177 176 215 235 229 228 238 170
139 114 102 112 113 117 294 184 132 94 55 254 98 127 203 243 255 191 160 152 148 152 163 170 174 170 161 160 164 164 161 163 161 157 158 158 158 159 160 164 167 166 166 168 167 164 165 167 166 164 167 173 171 168 166 165 165 163 161 161 160 159 158 157 157 159 161 164 168 171 172 173 176 179 180 181 179 173 172 171 173 172 170 180 186 181 179 174 160 146 147 159 217 219 205 190 127
125 117 109 91 109 131 158 194 138 111 171 267 101 146 202 234 225 180 165 160 153 158 168 173 173 164 155 158 161 162 164 164 162 158 158 160 159 159 160 162 166 166 164 167 166 162 165 168 167 165 167 171 172 171 168 166 168 169 167 164 163 163 160 159 157 155 159 166 175 181 184 186 185 184 188 190 186 179 174 170 173 175 170 170 172 171 170 165 149 135 131 111 65 170 174 190 94
306 114 151 170 128 141 145 239 3 120 141 22 70 150 186 220 213 181 170 170 158 159 169 169 166 159 150 156 161 161 163 161 160 158 157 159 160 159 161 163 166 166 165 166 165 164 168 170 168 164 164 168 170 171 170 167 168 170 170 167 165 165 164 162 158 156 160 165 169 172 170 171 170 172 182 186 182 177 171 166 170 171 164 167 177 180 180 173 152 129 127 109 51 55 146 201 328
281 83 124 167 143 152 140 151 208 126 122 77 52 102 247 238 199 138 166 178 164 159 165 162 160 154 146 154 161 160 159 160 162 157 156 157 157 158 162 165 167 166 167 168 167 167 171 173 171 166 162 165 168 170 170 167 166 167 167 167 165 164 164 164 163 166 173 173 170 167 165 164 162 166 174 176 175 173 170 173 176 168 167 178 180 181 184 175 157 129 120 107 50 41 75 255 341
183 160 146 140 160 179 157 156 175 148 118 103 77 274 262 268 188 124 138 171 166 161 161 158 159 155 146 156 163 161 157 162 168 159 156 155 153 156 161 165 166 165 166 168 169 170 171 174 176 170 167 168 167 167 169 167 167 169 168 169 169 168 166 168 172 177 182 184 183 180 178 175 168 164 169 173 177 175 174 179 182 175 174 185 179 170 167 155 143 117 91 75 41 35 32 15 355
165 167 156 154 167 184 159 142 156 149 127 129 141 245 268 297 14 355 1 130 149 148 160 159 159 157 150 161 167 162 160 170 170 158 154 154 154 156 160 164 166 165 168 171 171 172 171 173 177 177 178 180 177 172 170 170 173 176 177 177 179 179 175 176 180 179 180 186 190 189 184 177 168 161 165 174 178 176 178 180 179 176 169 169 162 147 146 136 115 90 68 49 39 45 56 41 350
147 149 149 159 158 137 135 113 143 153 130 152 164 190 282 324 6 340 338 346 90 95 153 165 164 164 155 167 173 162 167 176 165 155 153 155 156 158 161 164 164 164 170 173 172 172 172 173 177 180 181 181 183 183 178 177 182 185 185 185 188 190 187 186 187 183 179 182 186 184 178 174 169 162 163 172 174 174 177 177 173 170 157 143 135 125 129 125 96 75 54 41 44 58 71 43 358
146 147 142 149 146 126 82 92 152 166 113 157 166 152 191 301 321 304 348 3 39 68 109 162 173 174 161 169 177 166 168 173 158 152 154 155 158 161 162 162 161 163 169 172 172 172 173 174 176 179 179 173 176 182 179 180 186 187 183 179 177 179 181 183 186 184 183 183 181 178 175 176 175 168 163 170 175 176 176 175 174 173 164 146 137 134 125 110 84 67 49 37 36 55 62 36 14
152 144 139 148 141 109 60 85 155 168 81 156 162 141 135 339 302 290 356 43 318 33 117 134 177 189 179 174 174 166 165 164 156 153 156 159 161 161 162 163 163 165 168 169 171 172 173 174 176 178 180 175 171 173 177 180 184 185 184 179 171 167 170 174 177 179 183 185 181 179 180 183 184 177 168 170 179 181 178 178 176 177 176 166 155 149 128 109 86 69 50 38 37 61 73 53 37
153 149 144 153 159 155 125 154 158 152 41 132 131 114 56 351 318 292 278 134 291 295 266 305 237 233 225 191 173 163 166 162 158 155 156 161 162 161 163 165 166 167 168 168 170 172 174 176 178 179 182 182 174 173 178 180 181 184 188 187 183 177 173 172 172 176 184 186 183 185 188 188 189 186 175 174 182 183 181 180 176 174 173 170 174 170 154 140 107 78 64 50 45 63 86 80 67
175 169 155 157 174 182 138 142 144 104 40 114 118 109 296 293 275 265 258 125 266 285 304 319 284 236 248 221 183 166 168 162 158 159 157 161 163 162 163 166 167 167 168 170 172 174 176 178 181 183 185 185 181 179 180 181 180 183 185 184 185 184 178 175 174 177 186 189 190 194 192 190 192 188 180 179 183 185 183 178 176 174 168 166 174 181 192 209 211 122 88 65 51 59 84 93 85
187 186 175 167 170 155 123 136 137 99 68 173 146 132 203 217 238 244 255 274 241 224 217 275 273 259 273 251 202 172 169 163 160 161 160 162 165 164 163 166 168 169 170 173 175 176 178 180 182 184 186 186 185 182 181 184 184 184 185 180 180 181 178 181 183 184 188 193 198 199 194 194 192 185 181 181 183 186 187 184 184 182 174 170 173 172 183 198 202 164 113 97 63 65 82 93 86
183 208 180 159 150 139 141 148 146 144 191 201 181 149 140 190 231 226 218 240 241 222 202 229 251 257 260 250 213 178 172 166 161 162 162 164 164 163 164 167 170 172 172 172 174 176 178 180 182 185 186 186 184 182 183 188 189 190 192 186 184 186 185 187 191 193 194 196 201 202 201 198 187 181 186 191 191 191 191 191 193 189 180 176 175 166 158 179 189 171 140 142 91 82 90 88 79
230 212 160 150 149 149 155 154 147 169 136 149 203 186 107 188 220 208 193 208 231 230 217 218 233 240 243 246 226 186 176 171 162 162 164 167 166 165 167 170 173 175 174 173 174 177 180 181 183 186 187 186 184 183 187 192 193 194 194 189 189 192 193 192 193 196 198 197 200 203 205 199 187 185 198 208 207 205 202 198 197 195 188 185 183 176 164 170 180 182 181 210 173 109 103 90 79
231 165 146 154 156 151 156 152 125 129 102 115 229 230 135 220 215 175 179 201 220 224 216 209 217 225 233 238 226 192 181 175 165 164 167 169 169 169 170 172 175 176 176 177 178 180 182 184 185 187 188 187 187 188 192 196 197 197 193 190 191 195 198 196 192 196 199 199 201 203 203 196 191 196 208 214 213 215 218 209 203 201 198 196 197 195 185 183 187 201 236 241 202 149 122 101 88
166 131 125 129 134 141 148 142 115 120 105 185 216 211 173 232 202 156 170 209 220 220 213 206 208 214 220 227 220 193 182 178 170 167 168 170 171 172 172 173 176 178 179 180 182 183 184 185 185 187 188 188 191 195 197 198 199 200 195 194 194 193 195 195 193 197 200 200 202 203 199 194 194 201 209 214 215 220 224 216 210 205 202 205 206 207 202 197 202 225 242 209 195 183 159 135 114
133 118 107 93 101 131 124 76 89 111 296 235 200 202 196 217 213 181 185 207 210 208 205 205 210 212 213 219 216 192 181 180 176 170 169 169 171 172 172 173 176 179 181 181 183 185 185 186 186 187 189 191 195 199 199 198 199 200 197 194 193 190 189 192 193 197 199 199 201 204 202 198 201 207 210 213 219 223 219 212 212 204 200 207 207 210 214 210 212 224 220 200 202 202 188 183 167
116 119 120 107 89 351 38 15 31 100 269 246 185 190 202 232 230 206 210 215 207 198 196 199 205 210 210 213 209 192 182 178 175 170 169 167 168 171 173 174 175 178 180 181 184 186 187 188 188 189 191 195 198 199 198 198 198 198 195 191 191 191 191 194 195 199 202 203 205 206 204 203 208 211 209 212 219 222 217 211 209 200 200 209 209 212 218 215 214 214 213 214 220 216 207 209 209
96 123 126 113 110 316 87 312 335 179 256 241 164 170 202 251 237 208 211 219 209 196 196 195 197 202 206 209 201 191 184 179 174 168 169 168 169 171 174 175 174 175 180 182 184 186 187 189 190 191 194 196 197 198 198 197 197 196 193 190 192 193 195 199 201 204 206 208 210 207 204 206 210 211 210 214 219 219 216 212 207 204 210 216 215 217 219 217 217 218 221 225 229 223 220 223 228
95 140 149 137 139 160 192 222 197 216 270 281 142 157 231 273 265 211 204 209 205 196 196 193 192 195 202 205 193 184 185 182 176 171 170 171 172 173 176 177 174 175 181 183 184 186 187 190 192 193 196 196 196 198 200 199 199 197 193 193 196 198 200 204 206 207 207 208 210 207 205 207 209 211 213 217 220 219 217 213 208 210 220 227 223 221 222 219 221 225 226 230 232 228 228 235 243
84 179 160 147 152 158 180 192 181 197 237 82 122 161 222 227 254 223 202 201 195 191 193 189 188 191 196 201 191 181 187 184 176 172 172 174 176 176 177 178 177 177 180 183 185 186 187 190 193 194 195 195 196 199 200 202 203 201 198 197 199 203 206 208 209 209 208 208 209 207 208 210 211 214 216 219 221 222 220 215 212 215 222 228 223 218 221 219 219 221 221 227 233 231 232 234 239
288 197 128 151 179 154 149 177 166 153 128 115 152 217 231 202 254 247 189 182 180 179 184 181 186 191 190 198 197 187 186 185 178 172 172 176 178 179 178 180 180 178 179 182 185 186 187 190 193 195 196 196 197 200 201 204 205 204 202 200 201 206 210 212 211 211 210 210 209 210 212 213 215 218 218 221 224 224 222 219 220 220 221 224 223 220 224 222 218 217 216 225 229 228 230 229 234
297 63 176 223 181 131 121 240 95 96 104 179 209 262 287 301 305 286 152 162 174 174 177 180 188 190 187 196 201 193 185 185 183 177 175 178 181 183 181 180 181 180 179 182 185 187 188 190 192 194 197 198 199 201 202 204 205 204 203 203 203 207 211 213 212 212 212 212 213 215 216 216 219 221 221 222 224 222 221 223 225 225 223 224 227 228 229 225 221 220 220 224 227 227 229 227 232
118 185 242 262 45 83 102 104 35 68 109 251 244 251 269 263 297 245 148 158 176 174 176 181 184 187 189 196 199 195 187 184 186 184 182 181 183 187 185 182 182 182 181 183 186 188 189 190 192 193 196 198 199 202 203 203 204 203 204 206 206 209 213 213 212 214 214 214 217 220 219 219 222 224 224 224 224 223 224 226 227 226 225 226 230 232 231 225 222 222 225 224 220 223 227 226 231
149 195 249 72 74 353 30 130 165 156 149 279 283 284 264 214 222 204 165 171 179 172 171 178 183 187 190 194 198 198 193 186 182 183 186 186 186 189 188 184 183 183 183 185 186 188 189 191 192 193 196 199 199 201 203 203 203 203 205 208 208 209 213 214 214 214 214 216 220 223 221 221 222 224 225 224 224 226 227 226 226 226 226 228 230 232 229 225 223 224 228 229 222 222 227 227 229
330 283 324 61 144 175 192 176 162 154 171 231 306 339 284 237 256 243 199 186 179 171 171 181 187 189 189 192 195 195 191 188 183 177 183 188 187 189 188 185 183 183 183 185 186 188 189 190 192 193 195 197 198 200 202 203 203 204 207 209 210 210 212 214 215 214 215 219 222 222 220 219 221 222 224 225 226 226 225 225 224 225 227 230 231 231 228 225 227 228 231 235 229 227 234 234 232
72 315 284 269 269 198 215 246 150 137 146 165 155 281 267 265 306 275 217 186 177 172 171 183 189 190 192 193 195 194 187 184 183 176 182 189 188 188 187 185 183 181 182 184 185 187 189 189 190 193 194 195 196 199 201 203 204 204 206 209 211 212 212 214 215 215 217 222 224 223 221 221 223 224 224 226 225 224 225 225 223 223 225 229 231 232 230 228 231 231 232 236 231 228 239 244 242
159 179 198 188 205 203 326 296 288 116 128 160 160 200 267 282 336 308 225 152 163 169 170 179 186 188 191 191 190 191 195 199 200 194 184 189 193 189 184 181 180 180 181 184 186 187 188 189 190 192 193 194 196 198 200 203 204 205 207 209 210 212 213 214 215 216 219 222 224 224 224 223 225 225 224 224 223 224 227 225 223 224 226 229 231 234 233 232 232 232 232 234 231 230 238 243 244